User: anonymous   Login
Location: Caltech
(34.1382°N, 118.1253°W)
Time: 05:14:12
(UTC-07:00)
Language:

OAO 2 Rocket - Orbit

View from above orbital plane
View from above orbital plane
View from above satellite
View from above satellite

Ground track
Ground track

The orbit data is extracted from the following two-line orbital elements,

1 03598U 68110B   16270.16124686  .00000133  00000-0  34868-4 0  9991
2 03598  34.9950  28.0678 0050033 246.7417 112.8003 14.54251079528019
Epoch (UTC): 26 September 2016 03:52:11
Eccentricity: 0.0050033
inclination: 34.9950°
perigee height: 676 km
apogee height: 747 km
right ascension of ascending node: 28.0678°
argument of perigee: 246.7417°
revolutions per day: 14.54251079
mean anomaly at epoch: 112.8003°
orbit number at epoch: 52801

The dashed part of the orbit path shows where the satellite is in the earth's shadow,  

DLR